Weather History for Taos, NM

Change the Weather History Date:

Tuesday, November 20, 2012

  Actual Average Record
Temperature  
Mean Temperature 38 °F -  
Max Temperature 60 °F 46 °F 60 °F (1996)
Min Temperature 17 °F 17 °F 8 °F (2000)
Degree Days  
Heating Degree Days 26    
Moisture  
Dew Point 13 °F    
Average Humidity 45    
Maximum Humidity 74    
Minimum Humidity 14    
Precipitation  
Precipitation 0.00 in - - ()
Sea Level Pressure  
Sea Level Pressure 30.36 in    
Wind  
Wind Speed 5 mph (North)    
Max Wind Speed 9 mph    
Max Gust Speed -    
Visibility 10 miles    
Events      
Averages and records for this station are not official NWS values.
T = Trace of Precipitation, MM = Missing Value Source: NWS Daily Summary

Daily Weather History Graph

Daily Weather History Graph

Search for Another Location

Airport:

Trip Planner

Search our weather history database for the weather conditions in past years. The results will help you decide how hot, cold, wet, or windy it might be!

Date:

Astronomy

Nov. 20, 2012 Rise Set
Actual Time 6:45 AM MST 4:50 PM MST
Civil Twilight 6:17 AM MST 5:18 PM MST
Nautical Twilight 5:46 AM MST 5:50 PM MST
Astronomical Twilight 5:15 AM MST 6:20 PM MST
Moon 12:27 PM MST No Moon Set
Length of Visible Light 11h 00m
Length of Day
10h 05m
First Quarter, 52% of the Moon is Illuminated
Nov 20
First Quarter
Nov 28
Full
Dec 6
Last Quarter
Dec 13
New
Dec 19
First Quarter

Hourly Weather History & Observations

Time (MST) Temp. Windchill Dew Point Humidity Pressure Visibility Wind Dir Wind Speed Gust Speed Precip Events Conditions
12:15 AM 21.2 °F 16.4 °F 8.6 °F 58% 30.40 in 10.0 mi North 3.5 mph - N/A   Clear
12:35 AM 21.2 °F 16.4 °F 12.2 °F 68% 30.39 in 10.0 mi North 3.5 mph - N/A   Clear
12:55 AM 21.2 °F 16.4 °F 12.2 °F 68% 30.40 in 10.0 mi North 3.5 mph - N/A   Clear
1:15 AM 21.2 °F 13.6 °F 12.2 °F 68% 30.39 in 10.0 mi North 5.8 mph - N/A   Clear
1:35 AM 21.2 °F 11.7 °F 12.2 °F 68% 30.40 in 10.0 mi NNE 8.1 mph - N/A   Clear
1:55 AM 19.4 °F 11.5 °F 10.4 °F 68% 30.40 in 10.0 mi North 5.8 mph - N/A   Clear
2:15 AM 19.4 °F 9.5 °F 8.6 °F 63% 30.40 in 10.0 mi North 8.1 mph - N/A   Clear
2:35 AM 21.2 °F 11.7 °F 10.4 °F 63% 30.40 in 10.0 mi NNE 8.1 mph - N/A   Clear
2:55 AM 19.4 °F 8.6 °F 10.4 °F 68% 30.40 in 10.0 mi NNE 9.2 mph - N/A   Clear
3:15 AM 19.4 °F 10.4 °F 10.4 °F 68% 30.39 in 10.0 mi NNE 6.9 mph - N/A   Clear
3:35 AM 19.4 °F 10.4 °F 12.2 °F 74% 30.39 in 10.0 mi North 6.9 mph - N/A   Clear
3:55 AM 17.6 °F 7.3 °F 8.6 °F 68% 30.39 in 10.0 mi North 8.1 mph - N/A   Clear
4:15 AM 17.6 °F 7.3 °F 8.6 °F 68% 30.39 in 10.0 mi North 8.1 mph - N/A   Clear
4:35 AM 17.6 °F 8.2 °F 10.4 °F 73% 30.39 in 10.0 mi North 6.9 mph - N/A   Clear
4:55 AM 17.6 °F 8.2 °F 10.4 °F 73% 30.39 in 10.0 mi North 6.9 mph - N/A   Clear
5:15 AM 17.6 °F 8.2 °F 8.6 °F 68% 30.39 in 10.0 mi North 6.9 mph - N/A   Clear
5:35 AM 19.4 °F 12.8 °F 12.2 °F 74% 30.39 in 10.0 mi NE 4.6 mph - N/A   Clear
5:55 AM 19.4 °F 11.5 °F 10.4 °F 68% 30.40 in 10.0 mi North 5.8 mph - N/A   Clear
6:15 AM 21.2 °F - 12.2 °F 68% 30.40 in 10.0 mi Calm Calm - N/A   Clear
6:35 AM 21.2 °F 14.9 °F 12.2 °F 68% 30.41 in 10.0 mi North 4.6 mph - N/A   Clear
6:55 AM 19.4 °F 14.3 °F 12.2 °F 74% 30.42 in 10.0 mi NNE 3.5 mph - N/A   Clear
7:15 AM 19.4 °F 11.5 °F 12.2 °F 74% 30.43 in 10.0 mi North 5.8 mph - N/A   Clear
7:35 AM 23.0 °F 15.8 °F 15.8 °F 74% 30.43 in 10.0 mi North 5.8 mph - N/A   Clear
7:55 AM 26.6 °F 22.6 °F 15.8 °F 64% 30.44 in 10.0 mi North 3.5 mph - N/A   Clear
8:15 AM 30.2 °F 26.7 °F 17.6 °F 60% 30.45 in 10.0 mi North 3.5 mph - N/A   Clear
8:35 AM 33.8 °F 28.6 °F 17.6 °F 52% 30.44 in 10.0 mi North 5.8 mph - N/A   Clear
8:55 AM 35.6 °F 30.7 °F 17.6 °F 48% 30.44 in 10.0 mi North 5.8 mph - N/A   Clear
9:15 AM 37.4 °F 33.8 °F 19.4 °F 48% 30.44 in 10.0 mi North 4.6 mph - N/A   Clear
9:35 AM 39.2 °F 35.0 °F 19.4 °F 45% 30.43 in 10.0 mi North 5.8 mph - N/A   Clear
9:55 AM 44.6 °F - 19.4 °F 37% 30.43 in 10.0 mi Calm Calm - N/A   Clear
10:15 AM 46.4 °F 45.2 °F 21.2 °F 37% 30.42 in 10.0 mi North 3.5 mph - N/A   Clear
10:35 AM 48.2 °F - 21.2 °F 34% 30.41 in 10.0 mi North 4.6 mph - N/A   Clear
10:55 AM 50.0 °F - 21.2 °F 32% 30.40 in 10.0 mi NNW 5.8 mph - N/A   Clear
11:15 AM 51.8 °F - 21.2 °F 30% 30.39 in 10.0 mi NNW 5.8 mph - N/A   Clear
11:35 AM 53.6 °F - 19.4 °F 26% 30.37 in 10.0 mi Calm Calm - N/A   Clear
11:55 AM 53.6 °F - 19.4 °F 26% 30.36 in 10.0 mi Calm Calm - N/A   Clear
12:15 PM 53.6 °F - 19.4 °F 26% 30.34 in 10.0 mi North 8.1 mph - N/A   Clear
12:35 PM 55.4 °F - 19.4 °F 25% 30.33 in 10.0 mi Calm Calm - N/A   Clear
12:55 PM 57.2 °F - 19.4 °F 23% 30.32 in 10.0 mi North 5.8 mph - N/A   Clear
1:15 PM 57.2 °F - 17.6 °F 21% 30.31 in 10.0 mi Calm Calm - N/A   Clear
1:35 PM 59.0 °F - 17.6 °F 20% 30.30 in 10.0 mi West 3.5 mph - N/A   Clear
1:55 PM 59.0 °F - 12.2 °F 16% 30.29 in 10.0 mi Calm Calm - N/A   Clear
2:15 PM 60.8 °F - 10.4 °F 14% 30.28 in 10.0 mi SW 3.5 mph - N/A   Clear
2:35 PM 60.8 °F - 10.4 °F 14% 30.28 in 10.0 mi Calm Calm - N/A   Clear
2:55 PM 60.8 °F - 14.0 °F 16% 30.28 in 10.0 mi SW 3.5 mph - N/A   Clear
3:15 PM 60.8 °F - 10.4 °F 14% 30.28 in 10.0 mi Calm Calm - N/A   Clear
3:35 PM 59.0 °F - 10.4 °F 15% 30.28 in 10.0 mi Calm Calm - N/A   Clear
3:55 PM 59.0 °F - 14.0 °F 17% 30.29 in 10.0 mi West 6.9 mph - N/A   Clear
4:15 PM 57.2 °F - 14.0 °F 18% 30.29 in 10.0 mi WSW 8.1 mph - N/A   Clear
4:35 PM 53.6 °F - 14.0 °F 21% 30.29 in 10.0 mi WSW 6.9 mph - N/A   Clear
4:55 PM 53.6 °F - 14.0 °F 21% 30.29 in 10.0 mi WSW 4.6 mph - N/A   Clear
5:15 PM 50.0 °F - 12.2 °F 22% 30.29 in 10.0 mi West 5.8 mph - N/A   Clear
5:35 PM 46.4 °F 43.5 °F 12.2 °F 25% 30.30 in 10.0 mi West 5.8 mph - N/A   Clear
5:55 PM 44.6 °F 40.2 °F 12.2 °F 27% 30.30 in 10.0 mi WSW 8.1 mph - N/A   Clear
6:15 PM 42.8 °F 41.1 °F 12.2 °F 29% 30.31 in 10.0 mi South 3.5 mph - N/A   Clear
6:35 PM 39.2 °F - 12.2 °F 33% 30.31 in 9.0 mi Calm Calm - N/A   Clear
6:55 PM 37.4 °F 32.8 °F 10.4 °F 33% 30.32 in 10.0 mi East 5.8 mph - N/A   Clear
7:15 PM 35.6 °F 30.7 °F 10.4 °F 35% 30.32 in 10.0 mi ENE 5.8 mph - N/A   Clear
7:35 PM 35.6 °F 30.7 °F 12.2 °F 38% 30.32 in 10.0 mi NE 5.8 mph - N/A   Clear
7:55 PM 33.8 °F 27.7 °F 12.2 °F 41% 30.33 in 10.0 mi NE 6.9 mph - N/A   Clear
8:15 PM 33.8 °F - 12.2 °F 41% 30.33 in 10.0 mi Calm Calm - N/A   Clear
8:35 PM 32.0 °F - 12.2 °F 44% 30.33 in 10.0 mi Calm Calm - N/A   Clear
8:55 PM 33.8 °F - 12.2 °F 41% 30.33 in 10.0 mi Calm Calm - N/A   Clear
9:15 PM 35.6 °F - 12.2 °F 38% 30.33 in 10.0 mi Calm Calm - N/A   Clear
9:35 PM 33.8 °F 30.8 °F 10.4 °F 38% 30.33 in 10.0 mi NNW 3.5 mph - N/A   Clear
9:55 PM 32.0 °F 28.7 °F 8.6 °F 38% 30.33 in 10.0 mi NNW 3.5 mph - N/A   Clear
10:15 PM 28.4 °F 23.3 °F 10.4 °F 47% 30.33 in 10.0 mi North 4.6 mph - N/A   Clear
10:35 PM 28.4 °F 23.3 °F 10.4 °F 47% 30.34 in 10.0 mi North 4.6 mph - N/A   Clear
10:55 PM 30.2 °F 26.7 °F 10.4 °F 44% 30.34 in 10.0 mi NNW 3.5 mph - N/A   Clear
11:15 PM 26.6 °F 20.0 °F 8.6 °F 47% 30.34 in 10.0 mi North 5.8 mph - N/A   Clear
11:35 PM 28.4 °F 23.3 °F 10.4 °F 47% 30.34 in 10.0 mi North 4.6 mph - N/A   Clear
11:55 PM 26.6 °F - 12.2 °F 55% 30.33 in 10.0 mi Calm Calm - N/A   Clear